Home   Weather   Lansing   Past weeks

Flag for USA Past Weather in Lansing, Michigan, USA — Yesterday and Last 2 Weeks

Now
53 °F

Overcast.


Feels Like: 51 °F
Forecast: 49 / 70 °F
Wind: 8 mph from Southeast

Location: Capital City Airport

Current Time: Apr 25, 2017 at 7:02:33 am

Latest Report: Apr 25, 2017 at 5:53 am


Visibility: 10 mi

Pressure: 29.84 "Hg

Humidity: 69%

Dew Point: 43 °F

Location of LansingLocation

Past Weather in Lansing — Graph

°F

Lansing Temperature Yesterday

Maximum temperature yesterday: 72 °F (at 4:53 pm)
Minimum temperature yesterday: 37 °F (at 6:53 am)
Average temperature yesterday: 56 °F

High & Low Weather Summary for the Past Weeks

 TemperatureHumidityPressure
High83 °F (Apr 15, 3:53 pm)93% (Apr 11, 1:35 am)30.48 "Hg (Apr 11, 1:35 am)
Low36 °F (Apr 22, 4:53 am)19% (Apr 24, 4:53 pm)29.74 "Hg (Apr 10, 5:53 am)
Average55 °F62%30.08 "Hg
* Reported Apr 10 5:53 am — Apr 25 5:53 am, Lansing, Weather by CustomWeather, © 2017

Note: Actual official high and low records may vary slightly from our data, if they occured in-between our weather recording intervals... More about our weather records

Advertising

Lansing Weather History for the Previous 24 Hours

Scroll right to see more
 ConditionsComfort  
Time TempWeatherWind HumidityBarometerVisibility
5:53 am
Tue, Apr 25
53 °FOvercast.8 mph69%29.84 "Hg10 mi
4:53 am52 °FPassing clouds.9 mph69%29.84 "Hg10 mi
3:53 am53 °FClear.8 mph64%29.84 "Hg10 mi
2:53 am53 °FClear.9 mph61%29.85 "Hg10 mi
1:53 am55 °FClear.10 mph53%29.86 "Hg10 mi
12:53 am57 °FClear.13 mph42%29.86 "Hg10 mi
11:53 pm
Mon, Apr 24
56 °FClear.9 mph40%29.88 "Hg10 mi
10:53 pm57 °FClear.9 mph37%29.89 "Hg10 mi
9:53 pm57 °FClear.8 mph37%29.89 "Hg10 mi
8:53 pm62 °FClear.7 mph27%29.90 "Hg10 mi
7:53 pm66 °FSunny.10 mph25%29.89 "Hg10 mi
6:53 pm69 °FSunny.13 mph21%29.91 "Hg10 mi
5:53 pm70 °FSunny.15 mph19%29.93 "Hg10 mi
4:53 pm72 °FSunny.12 mph19%29.95 "Hg10 mi
3:53 pm71 °FSunny.14 mph22%29.97 "Hg10 mi
2:53 pm71 °FSunny.13 mph23%29.99 "Hg10 mi
1:53 pm71 °FSunny.12 mph28%30.01 "Hg10 mi
12:53 pm68 °FSunny.8 mph31%30.05 "Hg10 mi
11:53 am65 °FSunny.10 mph31%30.06 "Hg10 mi
10:53 am60 °FSunny.No wind44%30.08 "Hg10 mi
9:53 am53 °FSunny.3 mph59%30.09 "Hg10 mi
8:53 am47 °FSunny.5 mph71%30.09 "Hg10 mi
7:53 am41 °FSunny.3 mph82%30.09 "Hg10 mi
Weather by CustomWeather, © 2017

See weather overviewHow to use our weather pages